Location: Ammerl�gen
(47.2167°N, 9.6000°E)
Time: 06:53:18
(UTC+00:00)

ISS - Pass Details

Date: 01 October 2021
Orbit: 417 x 423 km, 51.6° (Epoch: 27 October)

Event Time Altitude Azimuth Distance (km) Brightness Sun altitude
Rises 19:53:26 0° 288° (WNW) 2,367 1.2 -29.1°
Reaches altitude 10° 19:55:54 10° 271° (W) 1,500 -0.3 -29.4°
Enters shadow 19:56:19 12° 265° (W) 1,375 -0.5 -29.5°
